GW3475 Weather Reports


time (UTC)temp
C
wind
direction
speed
KPH
gust
KPH
rain 1hr
cm
rain 24hr
cm
rain mn
cm
humidity
%
barometer
mb
20260510071801 18 87 0.0 0.0 0.00 0.00 0.00 94 1013.1
20260510071257 18 85 0.0 0.0 0.00 0.00 0.00 94 1013.1
20260510070757 18 85 0.0 0.0 0.00 0.00 0.00 94 1013.1
20260510070252 18 86 0.0 0.0 0.00 0.00 0.00 93 1013.2
20260510065747 18 70 1.6 1.6 0.00 0.00 0.00 93 1013.3
20260510065244 18 86 0.0 0.0 0.00 0.00 0.00 92 1013.3
20260510064740 18 92 0.0 0.0 0.00 0.00 0.00 92 1013.3
20260510064238 19 92 0.0 0.0 0.00 0.00 0.00 92 1013.4
20260510063734 19 107 0.0 0.0 0.00 0.00 0.00 91 1013.5
20260510063231 19 107 0.0 0.0 0.00 0.00 0.00 91 1013.3
20260510062727 19 108 0.0 0.0 0.00 0.00 0.00 91 1013.3
20260510062223 19 106 0.0 0.0 0.00 0.00 0.00 91 1013.0
20260510061719 19 102 0.0 0.0 0.00 0.00 0.00 91 1013.5
20260510061216 19 98 0.0 0.0 0.00 0.00 0.00 91 1013.7
20260510060713 19 98 0.0 0.0 0.00 0.00 0.00 90 1013.6
20260510060209 19 90 0.0 0.0 0.00 0.00 0.00 90 1013.5
20260510055706 19 106 0.0 0.0 0.00 0.00 0.00 90 1013.3
20260510055204 19 106 0.0 0.0 0.00 0.00 0.00 89 1013.4
20260510054659 20 106 0.0 0.0 0.00 0.00 0.00 89 1013.3
20260510054155 20 107 0.0 0.0 0.00 0.00 0.00 89 1013.3
20260510053654 20 107 0.0 0.0 0.00 0.00 0.00 89 1013.4
20260510053151 20 109 0.0 1.6 0.00 0.00 0.00 88 1013.1
20260510052647 20 90 0.0 0.0 0.00 0.00 0.00 88 1013.0
20260510052143 20 98 0.0 0.0 0.00 0.00 0.00 87 1012.9
20260510051639 20 107 0.0 0.0 0.00 0.00 0.00 87 1013.2
20260510051135 20 104 0.0 0.0 0.00 0.00 0.00 87 1013.0
20260510050633 20 108 0.0 0.0 0.00 0.00 0.00 87 1013.0
20260510050130 20 104 0.0 0.0 0.00 0.00 0.00 86 1012.9
20260510045627 20 113 0.0 1.6 0.00 0.00 0.00 86 1013.1
20260510045123 20 113 0.0 0.0 0.00 0.00 0.00 85 1012.8
20260510044619 20 113 0.0 0.0 0.00 0.00 0.00 85 1012.8
20260510044117 20 106 0.0 0.0 0.00 0.00 0.00 84 1012.8
20260510043613 20 108 0.0 0.0 0.00 0.00 0.00 84 1012.8
20260510043109 20 115 0.0 1.6 0.00 0.00 0.00 83 1012.9
20260510042608 20 100 0.0 0.0 0.00 0.00 0.00 83 1012.8
20260510042103 20 117 1.6 1.6 0.00 0.00 0.00 82 1012.8
20260510041600 21 128 1.6 1.6 0.00 0.00 0.00 81 1012.7
20260510041057 21 124 1.6 1.6 0.00 0.00 0.00 80 1012.7
20260510040554 21 113 0.0 1.6 0.00 0.00 0.00 79 1012.8
20260510040050 21 121 1.6 1.6 0.00 0.00 0.00 78 1012.9
20260510035546 21 121 0.0 0.0 0.00 0.00 0.00 77 1012.8
20260510035046 21 122 1.6 1.6 0.00 0.00 0.00 77 1012.8
20260510034544 21 118 0.0 0.0 0.00 0.00 0.00 76 1012.8
20260510034041 21 121 0.0 1.6 0.00 0.00 0.00 75 1012.8
20260510033537 20 112 0.0 0.0 0.00 0.00 0.00 74 1012.7
20260510033035 20 108 0.0 1.6 0.00 0.00 0.00 74 1012.7
20260510032531 20 107 0.0 1.6 0.00 0.00 0.00 74 1012.5
20260510032027 20 106 0.0 0.0 0.00 0.00 0.00 75 1012.4
20260510031522 20 106 0.0 0.0 0.00 0.00 0.00 77 1012.4
20260510031018 20 112 0.0 0.0 0.00 0.00 0.00 77 1012.4
20260510030514 20 92 0.0 0.0 0.00 0.00 0.00 74 1012.3
20260510030011 20 92 0.0 0.0 0.00 0.00 0.00 73 1012.2
20260510025508 20 92 0.0 0.0 0.00 0.00 0.00 73 1012.1
20260510025006 20 92 0.0 0.0 0.00 0.00 0.00 73 1012.1
20260510024503 20 92 0.0 0.0 0.00 0.00 0.00 73 1012.1
20260510023958 20 92 0.0 0.0 0.00 0.00 0.00 73 1012.0
20260510023454 20 92 0.0 0.0 0.00 0.00 0.00 73 1012.0
20260510022952 21 91 0.0 0.0 0.00 0.00 0.00 74 1011.7
20260510022451 21 92 0.0 0.0 0.00 0.00 0.00 73 1011.8
20260510021950 21 92 0.0 0.0 0.00 0.00 0.00 73 1011.8
20260510021448 21 92 0.0 0.0 0.00 0.00 0.00 72 1011.6
20260510020944 21 92 0.0 0.0 0.00 0.00 0.00 71 1011.8
20260510020439 21 91 0.0 0.0 0.00 0.00 0.00 71 1011.4
20260510015935 21 102 0.0 0.0 0.00 0.00 0.00 71 1011.6
20260510015431 21 102 0.0 0.0 0.00 0.00 0.00 70 1011.4
20260510014926 22 102 0.0 0.0 0.00 0.00 0.00 70 1011.3
20260510014424 22 102 0.0 0.0 0.00 0.00 0.00 68 1011.8
20260510013920 22 102 0.0 0.0 0.00 0.00 0.00 68 1011.4
20260510013415 22 102 0.0 0.0 0.00 0.00 0.00 68 1011.2
20260510012910 22 102 0.0 0.0 0.00 0.00 0.00 68 1011.2
20260510012406 23 102 0.0 0.0 0.00 0.00 0.00 67 1011.3
20260510011901 23 107 0.0 0.0 0.00 0.00 0.00 65 1011.2
20260510011356 23 108 0.0 0.0 0.00 0.00 0.00 64 1011.1
20260510010853 23 110 0.0 0.0 0.00 0.00 0.00 63 1011.1
20260510010350 23 112 0.0 0.0 0.00 0.00 0.00 63 1011.1
20260510005846 23 108 0.0 0.0 0.00 0.00 0.00 63 1010.7
20260510005343 23 113 0.0 0.0 0.00 0.00 0.00 63 1011.0
20260510004840 24 111 0.0 0.0 0.00 0.00 0.00 63 1010.9
20260510004338 24 112 0.0 1.6 0.00 0.00 0.00 62 1010.9
20260510003836 25 114 0.0 0.0 0.00 0.00 0.00 61 1010.7
20260510003332 25 106 0.0 0.0 0.00 0.00 0.00 61 1010.6
20260510002830 25 109 1.6 1.6 0.00 0.00 0.00 60 1010.5
20260510002328 25 131 0.0 1.6 0.00 0.00 0.00 60 1010.6
20260510001825 25 123 1.6 1.6 0.00 0.00 0.00 61 1010.5
20260510001323 25 105 0.0 0.0 0.00 0.00 0.00 61 1010.4
20260510000818 25 109 0.0 1.6 0.00 0.00 0.00 60 1010.4
20260510000318 25 117 1.6 1.6 0.00 0.00 0.00 61 1010.4
20260509235813 25 124 1.6 3.2 0.00 0.00 0.00 60 1010.1
20260509235310 25 109 0.0 0.0 0.00 0.00 0.00 61 1010.2
20260509234805 25 110 3.2 4.8 0.00 0.00 0.00 61 1010.2
20260509234302 25 150 3.2 3.2 0.00 0.00 0.00 60 1010.2
20260509233801 25 121 1.6 1.6 0.00 0.00 0.00 60 1010.3
20260509233258 25 94 0.0 0.0 0.00 0.00 0.00 60 1010.0
20260509232753 26 107 0.0 0.0 0.00 0.00 0.00 60 1010.1
20260509232251 26 106 0.0 0.0 0.00 0.00 0.00 59 1010.0
20260509231747 26 81 1.6 1.6 0.00 0.00 0.00 59 1010.2
20260509231244 26 97 0.0 1.6 0.00 0.00 0.00 59 1010.1
20260509230742 26 107 0.0 1.6 0.00 0.00 0.00 59 1010.1
20260509230239 26 131 0.0 1.6 0.00 0.00 0.00 60 1010.0
20260509225734 26 106 0.0 0.0 0.00 0.00 0.00 59 1010.1
20260509225230 26 128 3.2 3.2 0.00 0.00 0.00 60 1010.0
20260509224726 26 120 0.0 1.6 0.00 0.00 0.00 60 1009.9
20260509224223 26 40 1.6 3.2 0.00 0.00 0.00 58 1009.7
20260509223720 26 100 0.0 0.0 0.00 0.00 0.00 59 1009.8
20260509223217 26 80 0.0 0.0 0.00 0.00 0.00 57 1009.7
20260509222714 26 106 0.0 0.0 0.00 0.00 0.00 58 1009.8
20260509222209 26 150 3.2 3.2 0.00 0.00 0.00 59 1009.9
20260509221705 26 117 0.0 1.6 0.00 0.00 0.00 60 1009.6
20260509221201 26 125 1.6 1.6 0.00 0.00 0.00 57 1009.8
20260509220657 26 113 0.0 1.6 0.00 0.00 0.00 60 1009.6
20260509220148 26 117 1.6 3.2 0.00 0.00 0.00 61 1009.6
20260509215644 26 155 0.0 0.0 0.00 0.00 0.00 60 1009.7
20260509215141 26 109 1.6 3.2 0.00 0.00 0.00 61 1009.9
20260509214638 26 127 0.0 1.6 0.00 0.00 0.00 61 1009.6
20260509214135 26 119 0.0 1.6 0.00 0.00 0.00 61 1009.6
20260509213631 26 102 0.0 1.6 0.00 0.00 0.00 62 1009.7
20260509213127 26 105 0.0 0.0 0.00 0.00 0.00 60 1009.7
20260509212625 26 92 0.0 0.0 0.00 0.00 0.00 60 1009.8
20260509212122 25 115 0.0 1.6 0.00 0.00 0.00 61 1009.9
20260509211618 26 45 1.6 3.2 0.00 0.00 0.00 61 1009.7
20260509211114 26 148 0.0 1.6 0.00 0.00 0.00 60 1009.8
20260509210611 26 102 0.0 0.0 0.00 0.00 0.00 60 1009.6
20260509210108 26 112 0.0 1.6 0.00 0.00 0.00 59 1009.8
20260509205602 26 103 0.0 0.0 0.00 0.00 0.00 60 1010.0
20260509205057 26 129 1.6 3.2 0.00 0.00 0.00 57 1010.0
20260509204554 26 104 0.0 1.6 0.00 0.00 0.00 58 1010.2
20260509204051 26 140 0.0 1.6 0.00 0.00 0.00 57 1009.9
20260509203546 26 131 1.6 1.6 0.00 0.00 0.00 57 1010.1
20260509203045 26 56 1.6 3.2 0.00 0.00 0.00 56 1010.0
20260509202539 26 108 0.0 0.0 0.00 0.00 0.00 56 1010.4
20260509202035 27 115 0.0 1.6 0.00 0.00 0.00 55 1010.2
20260509201530 27 111 0.0 1.6 0.00 0.00 0.00 56 1010.4
20260509201027 27 57 3.2 3.2 0.00 0.00 0.00 54 1010.5
20260509200521 27 143 1.6 1.6 0.00 0.00 0.00 53 1010.5
20260509200018 27 127 1.6 1.6 0.00 0.00 0.00 52 1010.6
20260509195513 27 47 1.6 3.2 0.00 0.00 0.00 51 1010.8
20260509195008 27 43 4.8 8.0 0.00 0.00 0.00 49 1010.5
20260509194503 27 90 0.0 0.0 0.00 0.00 0.00 51 1010.5
20260509194000 27 63 1.6 3.2 0.00 0.00 0.00 51 1010.8
20260509193455 27 89 0.0 0.0 0.00 0.00 0.00 50 1010.9
20260509192951 27 106 1.6 1.6 0.00 0.00 0.00 53 1010.8
20260509192448 27 129 1.6 1.6 0.00 0.00 0.00 54 1010.8
20260509191943 27 156 1.6 3.2 0.00 0.00 0.00 53 1010.9
20260509191438 26 145 1.6 1.6 0.00 0.00 0.00 57 1010.7
20260509190934 26 157 1.6 3.2 0.00 0.00 0.00 57 1010.8
20260509190432 27 55 1.6 3.2 0.00 0.00 0.00 52 1011.0
20260509185930 27 75 1.6 1.6 0.00 0.00 0.00 53 1010.8
20260509185427 27 77 0.0 1.6 0.00 0.00 0.00 55 1010.9
20260509184923 27 63 1.6 1.6 0.00 0.00 0.00 55 1010.8
20260509184421 27 145 3.2 3.2 0.00 0.00 0.00 57 1010.8
20260509183917 27 109 1.6 1.6 0.00 0.00 0.00 54 1011.2
20260509183411 27 85 0.0 0.0 0.00 0.00 0.00 56 1011.0
20260509182908 26 139 1.6 3.2 0.00 0.00 0.00 59 1011.1
20260509182405 27 86 0.0 0.0 0.00 0.00 0.00 58 1011.6
20260509181903 27 33 0.0 1.6 0.00 0.00 0.00 56 1011.2
20260509181359 27 84 0.0 0.0 0.00 0.00 0.00 55 1011.3
20260509180856 27 110 0.0 0.0 0.00 0.00 0.00 57 1011.3
20260509180347 26 158 3.2 3.2 0.00 0.00 0.00 60 1011.3
20260509175844 26 80 1.6 3.2 0.00 0.00 0.00 64 1011.2
20260509175340 27 102 0.0 0.0 0.00 0.00 0.00 61 1011.4
20260509174836 27 109 0.0 0.0 0.00 0.00 0.00 61 1011.6
20260509174332 27 52 1.6 3.2 0.00 0.00 0.00 61 1011.2
20260509173828 27 108 0.0 0.0 0.00 0.00 0.00 57 1011.7
20260509173323 27 77 0.0 1.6 0.00 0.00 0.00 57 1011.7
20260509172820 27 72 1.6 1.6 0.00 0.00 0.00 60 1011.6
20260509172317 27 115 0.0 1.6 0.00 0.00 0.00 60 1011.2
20260509171813 26 72 0.0 1.6 0.00 0.00 0.00 62 1011.4
20260509171308 26 88 0.0 1.6 0.00 0.00 0.00 62 1011.7
20260509170805 26 64 0.0 0.0 0.00 0.00 0.00 62 1011.3
20260509170301 27 111 3.2 3.2 0.00 0.00 0.00 59 1011.6
20260509165800 26 35 3.2 3.2 0.00 0.00 0.00 60 1011.4
20260509165255 26 95 0.0 1.6 0.00 0.00 0.00 64 1011.3
20260509164751 27 152 1.6 3.2 0.00 0.00 0.00 62 1011.3
20260509164242 26 84 0.0 1.6 0.00 0.00 0.00 64 1011.3
20260509163744 26 102 0.0 1.6 0.00 0.00 0.00 63 1011.3
20260509163235 26 117 1.6 1.6 0.00 0.00 0.00 62 1011.2
20260509162734 27 98 0.0 0.0 0.00 0.00 0.00 64 1011.3
20260509162228 27 59 0.0 1.6 0.00 0.00 0.00 63 1011.3
20260509161723 27 82 1.6 1.6 0.00 0.00 0.00 64 1011.3
20260509161220 26 100 0.0 0.0 0.00 0.00 0.00 64 1011.6
20260509160715 26 78 1.6 3.2 0.00 0.00 0.00 64 1011.3
20260509160212 26 115 1.6 1.6 0.00 0.00 0.00 65 1011.6
20260509155707 25 96 0.0 0.0 0.00 0.00 0.00 65 1011.4
20260509155204 26 65 1.6 3.2 0.00 0.00 0.00 64 1011.2
20260509154700 26 29 4.8 4.8 0.00 0.00 0.00 63 1011.6
20260509154157 26 95 0.0 1.6 0.00 0.00 0.00 65 1011.6
20260509153654 26 48 0.0 3.2 0.00 0.00 0.00 65 1011.6
20260509153151 26 92 1.6 1.6 0.00 0.00 0.00 64 1011.4
20260509152646 26 106 0.0 1.6 0.00 0.00 0.00 67 1011.6
20260509152144 25 49 1.6 3.2 0.00 0.00 0.00 65 1011.3
20260509151640 25 80 0.0 0.0 0.00 0.00 0.00 66 1011.2
20260509151137 25 95 0.0 0.0 0.00 0.00 0.00 67 1011.3
20260509150636 25 114 0.0 1.6 0.00 0.00 0.00 69 1011.2
20260509150134 25 237 3.2 4.8 0.00 0.00 0.00 65 1011.2
20260509145630 24 97 0.0 0.0 0.00 0.00 0.00 72 1011.1
20260509145125 24 96 0.0 0.0 0.00 0.00 0.00 71 1011.2
20260509144622 24 80 1.6 1.6 0.00 0.00 0.00 69 1011.3
20260509144119 23 109 0.0 0.0 0.00 0.00 0.00 70 1011.3
20260509143616 23 84 0.0 0.0 0.00 0.00 0.00 72 1011.3
20260509143113 23 87 0.0 0.0 0.00 0.00 0.00 70 1011.8
20260509142608 23 81 0.0 1.6 0.00 0.00 0.00 70 1011.3
20260509142105 22 82 0.0 0.0 0.00 0.00 0.00 75 1011.6
20260509141601 22 161 0.0 1.6 0.00 0.00 0.00 74 1011.7
20260509141058 22 97 0.0 0.0 0.00 0.00 0.00 74 1011.7
20260509140555 22 101 0.0 0.0 0.00 0.00 0.00 76 1011.6
20260509140053 21 85 0.0 0.0 0.00 0.00 0.00 77 1011.7
20260509135549 21 76 1.6 1.6 0.00 0.00 0.00 77 1012.0
20260509135047 20 105 0.0 0.0 0.00 0.00 0.00 80 1011.9
20260509134544 20 166 1.6 1.6 0.00 0.00 0.00 80 1011.8
20260509134041 20 93 0.0 0.0 0.00 0.00 0.00 82 1011.9
20260509133537 18 83 0.0 0.0 0.00 0.00 0.00 86 1011.6
20260509133035 18 99 0.0 0.0 0.00 0.00 0.00 88 1011.7
20260509132533 17 89 0.0 0.0 0.00 0.00 0.00 88 1011.7
20260509132031 17 90 0.0 0.0 0.00 0.00 0.00 89 1011.6
20260509131522 17 90 0.0 0.0 0.00 0.00 0.00 90 1011.6
20260509131019 16 89 0.0 0.0 0.00 0.00 0.00 92 1011.6
20260509130514 16 89 0.0 0.0 0.00 0.00 0.00 93 1011.4
20260509130012 16 89 0.0 0.0 0.00 0.00 0.00 94 1011.4
20260509125508 16 89 0.0 0.0 0.00 0.00 0.00 95 1011.6
20260509125004 15 89 0.0 0.0 0.00 0.00 0.00 96 1011.6
20260509124501 15 89 0.0 0.0 0.00 0.00 0.00 96 1011.4
20260509123958 15 89 0.0 0.0 0.00 0.00 0.00 97 1011.6
20260509123456 15 89 0.0 0.0 0.00 0.00 0.00 97 1011.6
20260509122951 15 89 0.0 0.0 0.00 0.00 0.00 97 1011.7
20260509122449 15 89 0.0 0.0 0.00 0.00 0.00 97 1011.4
20260509121945 15 89 0.0 0.0 0.00 0.00 0.00 97 1011.4
20260509121442 14 90 0.0 0.0 0.00 0.00 0.00 97 1011.2
20260509120940 14 91 0.0 0.0 0.00 0.00 0.00 97 1011.4
20260509120438 14 91 0.0 0.0 0.00 0.00 0.00 97 1011.0
20260509115936 14 91 0.0 0.0 0.00 0.00 0.00 97 1011.0
20260509115433 14 91 0.0 0.0 0.00 0.00 0.00 97 1010.9
20260509114930 13 91 0.0 0.0 0.00 0.00 0.00 97 1010.8
20260509114429 14 91 0.0 0.0 0.00 0.00 0.00 97 1010.8
20260509113928 14 91 0.0 0.0 0.00 0.00 0.00 97 1010.6
20260509113425 14 91 0.0 0.0 0.00 0.00 0.00 97 1010.5
20260509112921 14 91 0.0 0.0 0.00 0.00 0.00 97 1010.7
20260509112419 14 92 0.0 0.0 0.00 0.00 0.00 96 1010.3
20260509111915 14 92 0.0 0.0 0.00 0.00 0.00 96 1010.4
20260509111412 14 98 0.0 0.0 0.00 0.00 0.00 96 1010.2
20260509110904 14 98 0.0 0.0 0.00 0.00 0.00 96 1010.2
20260509110400 14 99 0.0 0.0 0.00 0.00 0.00 96 1010.2
20260509105859 14 99 0.0 0.0 0.00 0.00 0.00 96 1010.1
20260509105356 14 98 0.0 0.0 0.00 0.00 0.00 96 1010.0
20260509104853 14 99 0.0 0.0 0.00 0.00 0.00 96 1009.9
20260509104349 14 104 0.0 0.0 0.00 0.00 0.00 96 1009.4
20260509103848 15 97 0.0 0.0 0.00 0.00 0.00 95 1009.7
20260509103344 15 106 0.0 0.0 0.00 0.00 0.00 95 1009.6
20260509102843 15 105 0.0 0.0 0.00 0.00 0.00 95 1009.5
20260509102340 15 104 0.0 0.0 0.00 0.00 0.00 95 1009.6
20260509101836 15 104 0.0 0.0 0.00 0.00 0.00 95 1009.7
20260509101332 15 104 0.0 0.0 0.00 0.00 0.00 94 1009.6
20260509100830 15 104 0.0 0.0 0.00 0.00 0.00 94 1009.7
20260509100327 15 105 0.0 0.0 0.00 0.00 0.00 94 1009.5
20260509095824 15 104 0.0 0.0 0.00 0.00 0.00 94 1009.6
20260509095321 15 105 0.0 0.0 0.00 0.00 0.00 94 1009.6
20260509094818 15 103 0.0 0.0 0.00 0.00 0.00 94 1009.3
20260509094315 15 98 0.0 0.0 0.00 0.00 0.00 94 1009.3
20260509093812 15 98 0.0 0.0 0.00 0.00 0.00 93 1009.5
20260509093309 15 89 0.0 0.0 0.00 0.00 0.00 93 1009.7
20260509092808 15 72 0.0 1.6 0.00 0.00 0.00 93 1009.6
20260509092306 15 83 0.0 0.0 0.00 0.00 0.00 92 1009.7
20260509091803 15 82 0.0 0.0 0.00 0.00 0.00 92 1010.0
20260509091300 15 83 0.0 0.0 0.00 0.00 0.00 91 1010.0
20260509090757 15 84 0.0 0.0 0.00 0.00 0.00 91 1009.7
20260509090254 15 86 0.0 0.0 0.00 0.00 0.00 90 1009.9
20260509085751 15 86 0.0 0.0 0.00 0.00 0.00 90 1010.0
20260509085249 16 87 0.0 0.0 0.00 0.00 0.00 90 1009.9
20260509084745 16 90 0.0 0.0 0.00 0.00 0.00 89 1009.8
20260509084242 16 77 1.6 1.6 0.00 0.00 0.00 89 1009.7
20260509083740 16 87 0.0 0.0 0.00 0.00 0.00 89 1009.8
20260509083236 16 78 0.0 0.0 0.00 0.00 0.00 88 1009.5
20260509082733 16 78 0.0 0.0 0.00 0.00 0.00 88 1009.5
20260509082230 16 74 0.0 1.6 0.00 0.00 0.00 88 1009.6
20260509081727 16 83 0.0 0.0 0.00 0.00 0.00 88 1009.3
20260509081224 16 71 0.0 1.6 0.00 0.00 0.00 88 1009.5
20260509080722 16 72 1.6 1.6 0.00 0.00 0.00 88 1009.5
20260509080219 16 73 0.0 1.6 0.00 0.00 0.00 87 1009.9
20260509075718 16 83 0.0 0.0 0.00 0.00 0.00 87 1009.8
20260509075215 16 88 0.0 1.6 0.00 0.00 0.00 87 1009.6
20260509074712 16 95 0.0 0.0 0.00 0.00 0.00 86 1009.8
20260509074209 17 118 0.0 0.0 0.00 0.00 0.00 85 1009.9
20260509073705 17 118 0.0 0.0 0.00 0.00 0.00 85 1009.9
20260509073202 17 215 4.8 4.8 0.00 0.00 0.00 84 1009.7
20260509072658 17 92 0.0 0.0 0.00 0.00 0.00 84 1009.6
20260509072155 17 247 4.8 8.0 0.00 0.00 0.00 83 1009.8